STARLINK-34366 (64281 NORAD) Tracking and Keplerian Element Data

This shows tracking and keplerian element data for the satellite.

Feedback or suggestion? Click here.




ElementValue
Catalog64281
NameSTARLINK-34366
Epoch Orbit3163
Epoch Day353.79406755
Epoch Year2025
RAAN127.8096
Inclination53.1588
Eccentricity0.0001911
Argument of Perigee60.3512
Mean Anonmoly299.7679
Mean Motion15.30240073
Decay Rate0.0002319
L11 64281U 25120AB 25353.79406755 .00023190 00000+0 79165-3 0 9997
L22 64281 53.1588 127.8096 0001911 60.3512 299.7679 15.30240073 31632



Live tracking and technical data element details for STARLINK-34366 (NORAD 64281). STARLINK-34366 can be tracked NOW for your location showing map with azimuth and elevation plus other details from your city location.







IsCatalogInMostPopularTable: catalog: 64281, numindb: 9
Update: records affected: 1



GetName: 64281 STARLINK-34366

Hit Count: updated at: Tue, 21 Apr 2026 20:17:26 GMT